Memphis, TN

12:49 PM CDT on August 18, 2017 (GMT -0500)
Memphis International

Weather History for KMEM - June, 2013

Change the Weather History Date:

Wednesday, June 5, 2013

  Actual Average Record
Temperature  
Mean Temperature 80 °F 77 °F  
Max Temperature 89 °F 87 °F 99 °F (1977)
Min Temperature 71 °F 68 °F 50 °F (1946)
Degree Days  
Heating Degree Days 0 0  
Month to date heating degree days 0 0  
Since 1 June heating degree days 0 0  
Since 1 July heating degree days 2933 2964  
Cooling Degree Days 15 12  
Month to date cooling degree days 52 59  
Year to date cooling degree days 337 380  
Since 1 June cooling degree days 52 59  
Growing Degree Days 30 (Base 50)    
Moisture  
Dew Point 67 °F    
Average Humidity 69    
Maximum Humidity 87    
Minimum Humidity 50    
Precipitation  
Precipitation 0.71 in 0.13 in 2.53 in (1918)
Month to date precipitation 1.27 0.70  
Year to date precipitation 35.85 24.98  
Snow  
Snow 0.00 in 0.00 in - ()
Month to date snowfall 0.0 0.0  
Since 1 June snowfall 0.0 0.0  
Since 1 July snowfall 0.9 3.8  
Snow Depth 0.00 in    
Sea Level Pressure  
Sea Level Pressure 29.88 in    
Wind  
Wind Speed 6 mph (SSE)    
Max Wind Speed 20 mph    
Max Gust Speed 25 mph    
Visibility 10 miles    
Events Rain , Thunderstorm    
T = Trace of Precipitation, MM = Missing Value Source: NWS Daily Summary

Daily Weather History Graph

Daily Weather History Graph

Search for Another Location

Airport or City:

Trip Planner

Search our weather history database for the weather conditions in past years. The results will help you decide how hot, cold, wet, or windy it might be!

Date:

Astronomy

Jun. 05, 2013 Rise Set
Actual Time 5:45 AM CDT 8:11 PM CDT
Civil Twilight 5:16 AM CDT 8:40 PM CDT
Nautical Twilight 4:40 AM CDT 9:16 PM CDT
Astronomical Twilight 4:00 AM CDT 9:56 PM CDT
Moon 3:44 AM CDT (6/5) 5:42 PM CDT (6/5)
Length of Visible Light 15h 24m
Length of Day
14h 25m
Waning Crescent, 8% of the Moon is Illuminated
Jun 5
Waning Crescent
Jun 8
New
Jun 16
First Quarter
Jun 23
Full
Jun 29
Last Quarter

Hourly Weather History & Observations

Time (CDT) Temp. Heat Index Dew Point Humidity Pressure Visibility Wind Dir Wind Speed Gust Speed Precip Events Conditions
12:54 AM 75.0 °F - 62.1 °F 64% 29.95 in 10.0 mi East 8.1 mph - N/A   Scattered Clouds
1:54 AM 73.9 °F - 62.1 °F 66% 29.94 in 10.0 mi East 6.9 mph - N/A   Mostly Cloudy
2:54 AM 73.0 °F - 62.1 °F 68% 29.91 in 10.0 mi East 4.6 mph - N/A   Scattered Clouds
3:54 AM 73.9 °F - 62.1 °F 66% 29.91 in 10.0 mi Variable 4.6 mph - N/A   Mostly Cloudy
4:54 AM 75.9 °F - 62.1 °F 62% 29.91 in 10.0 mi Variable 4.6 mph - N/A   Mostly Cloudy
5:54 AM 71.1 °F - 63.0 °F 75% 29.92 in 10.0 mi NE 5.8 mph - N/A   Scattered Clouds
6:54 AM 72.0 °F - 63.0 °F 73% 29.92 in 10.0 mi East 3.5 mph - N/A   Mostly Cloudy
7:54 AM 75.0 °F - 64.0 °F 69% 29.92 in 10.0 mi Variable 3.5 mph - N/A   Mostly Cloudy
8:06 AM 75.2 °F - 64.4 °F 69% 29.93 in 10.0 mi Calm Calm - N/A   Overcast
8:33 AM 77.0 °F - 64.4 °F 65% 29.94 in 10.0 mi NE 4.6 mph - N/A   Mostly Cloudy
8:54 AM 79.0 °F - 66.0 °F 64% 29.93 in 10.0 mi NNE 4.6 mph - N/A   Mostly Cloudy
9:54 AM 82.0 °F 84.5 °F 66.9 °F 60% 29.95 in 10.0 mi Calm Calm - N/A   Overcast
10:54 AM 84.0 °F 87.0 °F 68.0 °F 58% 29.94 in 10.0 mi Calm Calm - N/A   Mostly Cloudy
11:54 AM 86.0 °F 90.7 °F 70.0 °F 59% 29.92 in 10.0 mi WSW 5.8 mph - N/A   Scattered Clouds
12:54 PM 88.0 °F 93.8 °F 71.1 °F 57% 29.90 in 10.0 mi Calm Calm - N/A   Mostly Cloudy
1:54 PM 86.0 °F 90.7 °F 70.0 °F 59% 29.87 in 10.0 mi NNW 12.7 mph - N/A   Mostly Cloudy
2:01 PM 86.0 °F 90.4 °F 69.8 °F 58% 29.89 in 10.0 mi NNW 18.4 mph 25.3 mph N/A   Overcast
2:05 PM 82.4 °F 85.4 °F 68.0 °F 62% 29.88 in 10.0 mi NNW 17.3 mph 25.3 mph N/A Thunderstorm Thunderstorm
2:34 PM 87.8 °F 92.6 °F 69.8 °F 55% 29.88 in 10.0 mi NNW 8.1 mph - 0.00 in   Overcast
2:54 PM 87.1 °F 92.0 °F 70.0 °F 57% 29.86 in 10.0 mi North 4.6 mph - 0.00 in   Overcast
3:54 PM 89.1 °F 92.9 °F 68.0 °F 50% 29.84 in 10.0 mi Calm Calm - N/A   Overcast
4:54 PM 82.9 °F 86.5 °F 69.1 °F 63% 29.81 in 10.0 mi SE 10.4 mph - N/A   Overcast
5:54 PM 82.9 °F 86.5 °F 69.1 °F 63% 29.82 in 10.0 mi SW 3.5 mph - N/A   Overcast
6:54 PM 82.9 °F 86.5 °F 69.1 °F 63% 29.81 in 10.0 mi SSW 4.6 mph - N/A   Overcast
7:54 PM 81.0 °F 84.4 °F 70.0 °F 69% 29.81 in 10.0 mi SSE 9.2 mph - N/A   Overcast
8:46 PM 78.8 °F - 69.8 °F 74% 29.84 in 10.0 mi Calm Calm - N/A Thunderstorm Thunderstorm
8:54 PM 75.9 °F - 70.0 °F 82% 29.85 in 4.0 mi West 5.8 mph 17.3 mph 0.01 in Rain , Thunderstorm Heavy Thunderstorms and Rain
9:02 PM 73.4 °F - 69.8 °F 88% 29.83 in 2.0 mi South 10.4 mph - 0.45 in Rain , Thunderstorm Heavy Thunderstorms and Rain
9:12 PM 73.4 °F - 69.8 °F 88% 29.84 in 10.0 mi SSW 10.4 mph - 0.70 in Rain , Thunderstorm Light Thunderstorms and Rain
9:23 PM 75.2 °F - 69.8 °F 83% 29.83 in 10.0 mi SSE 12.7 mph - 0.70 in Thunderstorm Thunderstorm
9:35 PM 75.2 °F - 69.8 °F 83% 29.85 in 10.0 mi SSW 10.4 mph - 0.70 in   Overcast
9:54 PM 73.9 °F - 70.0 °F 87% 29.85 in 10.0 mi South 13.8 mph - 0.70 in   Overcast
10:54 PM 73.9 °F - 70.0 °F 87% 29.84 in 10.0 mi SSW 13.8 mph 18.4 mph 0.00 in   Overcast
11:54 PM 73.0 °F - 66.9 °F 81% 29.83 in 10.0 mi SSW 13.8 mph - N/A   Scattered Clouds